Hourly Data Report for September 26, 2017

All times are specified in Local Standard Time (LST). Add 1 hour to adjust for Daylight Saving Time where and when it is observed.

KITCHENER/WATERLOO
ONTARIO

43°27'39.000" N
80°22'43.000" W
321.60 m
6144239
71368
YKF

Download Data

Hourly Data (September 2017)
Hourly Data Report for September 26, 2017
Temp Definition
°C
Dew Point Temp Definition
°C
Rel Hum Definition
%
Wind Dir Definition
10's deg

Wind Spd Definition
km/h
Visibility Definition
km
Stn Press Definition
kPa
Hmdx Definition


Wind Chill Definition


Weather Definition


TIME
00:00 Legend Double Dagger 17.7 17.4 98 36 4 3.6 97.89     Fog
01:00 Legend Double Dagger 17.3 17.0 98 36 4 2.8 97.90     Fog
02:00 Legend Double Dagger 17.4 17.2 99   0 1.2 97.87     Fog
03:00 Legend Double Dagger 16.9 16.7 99   0 1.6 97.87     Fog
04:00 Legend Double Dagger 16.6 16.4 99   0 0.4 97.85     Fog
05:00 Legend Double Dagger 15.0 14.9 99 8 4 0.8 97.84     Fog
06:00 Legend Double Dagger 15.5 15.4 99 35 4 0.8 97.87     Fog
07:00 Legend Double Dagger 16.6 16.4 99   0 2.8 97.89     Fog
08:00 Legend Double Dagger 21.1 19.2 89 11 4 6.4 97.89 28   Fog
09:00 Legend Double Dagger 25.0 19.7 72 21 8 11.3 97.88 32   LegendNANA
10:00 Legend Double Dagger 27.3 19.0 60 LegendMM 9 16.1 97.86 34   LegendNANA
11:00 Legend Double Dagger 29.2 17.5 49 18 11 16.1 97.84 35   LegendNANA
12:00 Legend Double Dagger 30.6 16.8 43 18 15 16.1 97.80 36   LegendNANA
13:00 Legend Double Dagger 31.3 16.1 39 23 15 16.1 97.75 36   LegendNANA
14:00 Legend Double Dagger 31.7 16.5 40 22 13 16.1 97.70 37   LegendNANA
15:00 Legend Double Dagger 31.6 16.1 39 24 22 16.1 97.65 36   LegendNANA
16:00 Legend Double Dagger 30.3 16.8 44 20 13 16.1 97.62 35   LegendNANA
17:00 Legend Double Dagger 29.5 17.6 48 20 15 16.1 97.61 35   LegendNANA
18:00 Legend Double Dagger 27.2 17.3 54 19 11 16.1 97.62 33   LegendNANA
19:00 Legend Double Dagger 25.6 15.8 54 20 11 16.1 97.63 30   LegendNANA
20:00 Legend Double Dagger 23.7 15.9 61 20 9 16.1 97.64 28   LegendNANA
21:00 Legend Double Dagger 22.7 16.1 66 18 8 16.1 97.64 27   LegendNANA
22:00 Legend Double Dagger 20.1 16.2 78   0 16.1 97.62 25   LegendNANA
23:00 Legend Double Dagger 18.3 16.6 89   0 16.1 97.61     LegendNANA

Notes on Data Quality.

Legend

  • E = Estimated
  • M = Missing
  • NA = Not Available
  • ‡ = Partner data that is not subject to review by the National Climate Archives
Date modified: